User: anonymous   Login
Location: Asheville, NC
(35.6000°N, 82.5500°W)
Time: 14:42:17
(UTC-05:00)
Language:

DOVE 4 - Orbit

View from above orbital plane
View from above orbital plane
View from above satellite
View from above satellite

Ground track
Ground track

The orbit data is extracted from the following two-line orbital elements,

1 39430U 13066Q   18017.49854469  .00000245  00000-0  52987-4 0  9997
2 39430  97.6814   5.3775 0153083  86.2935 275.5756 14.59006638221189
Epoch (UTC): 17 January 2018 11:57:54
Eccentricity: 0.0153083
inclination: 97.6814°
perigee height: 588 km
apogee height: 804 km
right ascension of ascending node: 5.3775°
argument of perigee: 86.2935°
revolutions per day: 14.59006638
mean anomaly at epoch: 275.5756°
orbit number at epoch: 22118

The dashed part of the orbit path shows where the satellite is in the earth's shadow,  

DLR